{"data":{"norad_id":53425,"intl_designator":"2022-097AP","name":"STARLINK-4531","alt_names":[],"object_type":"PAYLOAD","status":"ACTIVE","operator":null,"country":"US","launch_date":"2022-08-10","launch_site_code":"AFETR","launch_vehicle":null,"mission":null,"orbit_class":"UNKNOWN","rcs_meters":null,"size_class":null,"mass_kg":null,"dimensions":null,"purposes":["comms"],"wikipedia_slug":null,"has_3d_model":false,"image_url":null,"decayed_at":null,"tle_current":{"epoch":"2026-05-25T02:38:40.028928Z","epoch_age_seconds":58889,"freshness":"FRESH","line1":"1 53425U 22097AP  26145.11018552  .00000456  00000+0  46711-4 0  9997","line2":"2 53425  53.2146 131.0562 0001288  56.4281 303.6834 15.08838652210157","mean_motion":15.08838652,"eccentricity":0.0001288,"inclination_deg":53.2146,"raan_deg":131.0562,"arg_perigee_deg":56.4281,"mean_anomaly_deg":303.6834,"bstar":4.6711e-5,"rev_number":21015,"period_min":95.437639941901,"perigee_km":538.8564857391,"apogee_km":540.63853278869,"semimajor_km":6917.8845092639,"source":"CELESTRAK","updated_at":"2026-05-25T13:38:17.404625Z"}}}